Location: Montreal
(45.5000°N, 73.5830°W)
Time: 10:15:19
(UTC-04:00)

OTV 5 (USA 277) - Visible Passes

Search period start: 23 June 2018 00:00
Search period end: 03 July 2018 00:00
Orbit: 313 x 320 km, 54.5° (Epoch: 21 June)

Date Brightness Start Highest point End Pass type
(mag) Time Alt. Az. Time Alt. Az. Time Alt. Az.
23 Jun ? 01:33:35 10° NW 01:34:38 21° NW 01:34:38 21° NW visible
23 Jun ? 22:39:56 10° NNW 22:41:16 13° N 22:42:35 10° NNE visible
24 Jun ? 00:13:55 10° NW 00:16:16 26° NNE 00:16:52 23° NE visible
24 Jun ? 22:54:21 10° NNW 22:56:01 15° NNE 22:57:41 10° NE visible
25 Jun ? 00:28:10 10° NW 00:30:05 36° NNW 00:30:05 36° NNW visible
25 Jun ? 21:34:21 10° NNW 21:35:39 12° N 21:36:55 10° NNE visible
25 Jun ? 23:08:36 10° NNW 23:10:43 20° NNE 23:12:34 12° ENE visible
26 Jun ? 00:42:34 10° WNW 00:43:23 18° WNW 00:43:23 18° WNW visible
26 Jun ? 21:48:57 10° NNW 21:50:24 13° N 21:51:52 10° NE visible
26 Jun ? 23:22:49 10° NW 23:25:19 34° NNE 23:25:57 29° ENE visible
27 Jun ? 22:03:15 10° NNW 22:05:09 17° NNE 22:07:02 10° ENE visible
27 Jun ? 23:37:07 10° NW 23:39:24 58° NW 23:39:24 58° NW visible
28 Jun ? 22:17:28 10° NW 22:19:48 25° NNE 22:22:03 11° E visible
28 Jun ? 23:51:38 10° WNW 23:52:54 22° W 23:52:54 22° W visible
29 Jun ? 22:31:43 10° NW 22:34:22 49° NNE 22:35:36 25° E visible
30 Jun ? 22:46:06 10° WNW 22:48:47 64° SW 22:49:12 53° SSE visible
01 Jul ? 21:26:21 10° NW 21:28:51 33° NNE 21:31:22 10° E visible
01 Jul ? 23:00:49 10° WNW 23:02:51 24° SW 23:02:51 24° SW visible
02 Jul ? 21:40:39 10° NW 21:43:21 76° NE 21:45:42 13° ESE visible
